No particular awareness of the weather is required.    There are no Weather-warnings


Meteo18 Weather Cam more information Meteo18 Weather Cam


Thunder radar more information blitzortung!


Rain radar more information rain snow radar


Visit our other weather sites:

Template documentation
and downloads

And another site



Weather Underground History page Text

Daily Summary for January 8, 2018 Units:  Both    English   Metric
« Previous Day
Next Day »
Daily Weekly Monthly Yearly Custom
  High: Low: Average:
Temperature: TemperatureC °F /  -17.8 °C 5.0 °F /  -15 °C 6.9 °F /  -13.9 °C
Dew Point: DewpointC °F /  -17.8 °C 4.0 °F /  -15.6 °C 5.4 °F /  -14.8 °C
Humidity: Humidity % 86 % 90 %
Wind Speed: WindSpeedKMH mph /  0 km/h - 6.1 mph /  9.8 km/h
Wind Gust: WindSpeedGustKMH mph /  0 km/h - -
Wind:- - ENE
Pressure: PressurehPa in /  0 hPa 1011.4 in /  34246 hPa -
Precipitation: 0.0 in /  0 mm    
Historical Graphs
 
 
Tabular Data for January 8, 2018
Time Temperature Dew Point Pressure Wind Wind Speed Wind Gust Humidity Rainfall Rate (Hourly)
TemperatureC °F /  -17.8 °C DewpointC °F /  -17.8 °C PressurehPa in /  0 hPa Calm     Humidity % HourlyPrecipMM in /  0 mm
00:04 6.9 °F /  -13.9 °C 5.5 °F /  -14.7 °C 1015.1 in /  34371.3 hPa ENE 3.2 mph /  5.1 km/h 14.5 mph /  23.3 km/h 91 % 0.0 in /  0 mm
00:11 6.9 °F /  -13.9 °C 5.7 °F /  -14.6 °C 1015.1 in /  34371.3 hPa North 9.7 mph /  15.6 km/h 14.5 mph /  23.3 km/h 92 % 0.0 in /  0 mm
00:16 6.9 °F /  -13.9 °C 5.5 °F /  -14.7 °C 1015.1 in /  34371.3 hPa NNE 3.2 mph /  5.1 km/h 14.5 mph /  23.3 km/h 91 % 0.0 in /  0 mm
00:18 6.9 °F /  -13.9 °C 5.5 °F /  -14.7 °C 1015.1 in /  34371.3 hPa NNE 14.3 mph /  23 km/h 19.3 mph /  31.1 km/h 91 % 0.0 in /  0 mm
00:22 6.9 °F /  -13.9 °C 5.5 °F /  -14.7 °C 1015.1 in /  34371.3 hPa NE 7.9 mph /  12.7 km/h 16.1 mph /  25.9 km/h 91 % 0.0 in /  0 mm
00:28 6.9 °F /  -13.9 °C 5.5 °F /  -14.7 °C 1015.1 in /  34371.3 hPa NNE 7.9 mph /  12.7 km/h 19.3 mph /  31.1 km/h 91 % 0.0 in /  0 mm
00:34 6.9 °F /  -13.9 °C 5.5 °F /  -14.7 °C 1015.1 in /  34371.3 hPa NNE 7.9 mph /  12.7 km/h 17.7 mph /  28.5 km/h 91 % 0.0 in /  0 mm
00:42 6.9 °F /  -13.9 °C 5.5 °F /  -14.7 °C 1015.1 in /  34371.3 hPa NNE 16.3 mph /  26.2 km/h 16.3 mph /  26.2 km/h 91 % 0.0 in /  0 mm
00:44 6.9 °F /  -13.9 °C 5.5 °F /  -14.7 °C 1014.8 in /  34361.1 hPa NE 11.1 mph /  17.9 km/h 25.7 mph /  41.4 km/h 91 % 0.0 in /  0 mm
00:50 6.9 °F /  -13.9 °C 5.5 °F /  -14.7 °C 1014.8 in /  34361.1 hPa NE 6.4 mph /  10.3 km/h 19.3 mph /  31.1 km/h 91 % 0.0 in /  0 mm
00:56 6.9 °F /  -13.9 °C 5.5 °F /  -14.7 °C 1015.1 in /  34371.3 hPa NNE 13.0 mph /  20.9 km/h 13.0 mph /  20.9 km/h 91 % 0.0 in /  0 mm
01:02 6.9 °F /  -13.9 °C 5.5 °F /  -14.7 °C 1014.8 in /  34361.1 hPa NNE 13.0 mph /  20.9 km/h 22.5 mph /  36.2 km/h 91 % 0.0 in /  0 mm
01:08 6.8 °F /  -14 °C 5.4 °F /  -14.8 °C 1014.8 in /  34361.1 hPa NNE 6.4 mph /  10.3 km/h 17.7 mph /  28.5 km/h 91 % 0.0 in /  0 mm
01:10 6.8 °F /  -14 °C 5.4 °F /  -14.8 °C 1014.8 in /  34361.1 hPa NE 11.1 mph /  17.9 km/h 17.7 mph /  28.5 km/h 91 % 0.0 in /  0 mm
01:16 6.8 °F /  -14 °C 5.4 °F /  -14.8 °C 1014.8 in /  34361.1 hPa NNE 6.4 mph /  10.3 km/h 22.5 mph /  36.2 km/h 91 % 0.0 in /  0 mm
01:26 6.8 °F /  -14 °C 5.4 °F /  -14.8 °C 1014.4 in /  34347.6 hPa NNW 4.7 mph /  7.6 km/h 16.1 mph /  25.9 km/h 91 % 0.0 in /  0 mm
01:32 6.8 °F /  -14 °C 5.4 °F /  -14.8 °C 1014.4 in /  34347.6 hPa NNE 6.4 mph /  10.3 km/h 17.7 mph /  28.5 km/h 91 % 0.0 in /  0 mm
01:38 6.8 °F /  -14 °C 5.4 °F /  -14.8 °C 1014.8 in /  34361.1 hPa NE 13.0 mph /  20.9 km/h 19.3 mph /  31.1 km/h 91 % 0.0 in /  0 mm
01:44 6.8 °F /  -14 °C 5.4 °F /  -14.8 °C 1014.4 in /  34347.6 hPa NE 11.1 mph /  17.9 km/h 19.3 mph /  31.1 km/h 91 % 0.0 in /  0 mm
01:52 6.7 °F /  -14.1 °C 5.3 °F /  -14.8 °C 1014.4 in /  34347.6 hPa NE 6.4 mph /  10.3 km/h 19.3 mph /  31.1 km/h 91 % 0.0 in /  0 mm
02:01 6.7 °F /  -14.1 °C 5.3 °F /  -14.8 °C 1014.4 in /  34347.6 hPa NNE 11.1 mph /  17.9 km/h 16.1 mph /  25.9 km/h 91 % 0.0 in /  0 mm
02:07 6.6 °F /  -14.1 °C 5.2 °F /  -14.9 °C 1014.4 in /  34347.6 hPa NNE 9.7 mph /  15.6 km/h 17.7 mph /  28.5 km/h 91 % 0.0 in /  0 mm
02:15 6.6 °F /  -14.1 °C 5.2 °F /  -14.9 °C 1014.4 in /  34347.6 hPa NNW 6.4 mph /  10.3 km/h 20.9 mph /  33.6 km/h 91 % 0.0 in /  0 mm
02:21 6.6 °F /  -14.1 °C 5.2 °F /  -14.9 °C 1014.4 in /  34347.6 hPa North 11.1 mph /  17.9 km/h 17.7 mph /  28.5 km/h 91 % 0.0 in /  0 mm
02:29 6.6 °F /  -14.1 °C 5.2 °F /  -14.9 °C 1014.4 in /  34347.6 hPa NE 16.3 mph /  26.2 km/h 17.7 mph /  28.5 km/h 91 % 0.0 in /  0 mm
02:36 6.6 °F /  -14.1 °C 5.4 °F /  -14.8 °C 1014.4 in /  34347.6 hPa NNE 14.3 mph /  23 km/h 29.0 mph /  46.7 km/h 92 % 0.0 in /  0 mm
02:41 6.6 °F /  -14.1 °C 5.2 °F /  -14.9 °C 1014.4 in /  34347.6 hPa NE 11.1 mph /  17.9 km/h 17.7 mph /  28.5 km/h 91 % 0.0 in /  0 mm
02:47 6.6 °F /  -14.1 °C 5.2 °F /  -14.9 °C 1014.8 in /  34361.1 hPa NE 7.9 mph /  12.7 km/h 14.5 mph /  23.3 km/h 91 % 0.0 in /  0 mm
02:53 6.5 °F /  -14.2 °C 5.3 °F /  -14.8 °C 1015.1 in /  34371.3 hPa NE 9.7 mph /  15.6 km/h 11.3 mph /  18.2 km/h 92 % 0.0 in /  0 mm
02:59 6.5 °F /  -14.2 °C 5.3 °F /  -14.8 °C 1015.1 in /  34371.3 hPa North 3.2 mph /  5.1 km/h 11.3 mph /  18.2 km/h 92 % 0.0 in /  0 mm
03:05 6.4 °F /  -14.2 °C 5.2 °F /  -14.9 °C 1015.1 in /  34371.3 hPa NNE 3.2 mph /  5.1 km/h 16.1 mph /  25.9 km/h 92 % 0.0 in /  0 mm
03:12 6.4 °F /  -14.2 °C 5.2 °F /  -14.9 °C 1014.8 in /  34361.1 hPa NE 9.7 mph /  15.6 km/h 12.9 mph /  20.8 km/h 92 % 0.0 in /  0 mm
03:18 6.4 °F /  -14.2 °C 5.2 °F /  -14.9 °C 1015.1 in /  34371.3 hPa ENE 1.4 mph /  2.3 km/h 14.5 mph /  23.3 km/h 92 % 0.0 in /  0 mm
03:21 6.4 °F /  -14.2 °C 5.2 °F /  -14.9 °C 1015.1 in /  34371.3 hPa NNE 13.0 mph /  20.9 km/h 14.5 mph /  23.3 km/h 92 % 0.0 in /  0 mm
03:27 6.4 °F /  -14.2 °C 5.2 °F /  -14.9 °C 1014.8 in /  34361.1 hPa ENE 13.0 mph /  20.9 km/h 19.3 mph /  31.1 km/h 92 % 0.0 in /  0 mm
03:36 6.4 °F /  -14.2 °C 5.2 °F /  -14.9 °C 1014.8 in /  34361.1 hPa NNE 11.1 mph /  17.9 km/h 16.1 mph /  25.9 km/h 92 % 0.0 in /  0 mm
03:41 6.3 °F /  -14.3 °C 5.1 °F /  -14.9 °C 1014.8 in /  34361.1 hPa NE 11.1 mph /  17.9 km/h 17.7 mph /  28.5 km/h 92 % 0.0 in /  0 mm
03:42 6.3 °F /  -14.3 °C 5.1 °F /  -14.9 °C 1014.8 in /  34361.1 hPa NE 6.4 mph /  10.3 km/h 19.3 mph /  31.1 km/h 92 % 0.0 in /  0 mm
03:48 6.4 °F /  -14.2 °C 5.2 °F /  -14.9 °C 1014.8 in /  34361.1 hPa NE 9.7 mph /  15.6 km/h 19.3 mph /  31.1 km/h 92 % 0.0 in /  0 mm
03:55 6.3 °F /  -14.3 °C 5.1 °F /  -14.9 °C 1014.8 in /  34361.1 hPa NNE 4.7 mph /  7.6 km/h 19.3 mph /  31.1 km/h 92 % 0.0 in /  0 mm
04:03 6.3 °F /  -14.3 °C 5.1 °F /  -14.9 °C 1014.8 in /  34361.1 hPa NNE 11.1 mph /  17.9 km/h 20.9 mph /  33.6 km/h 92 % 0.0 in /  0 mm
04:09 6.2 °F /  -14.3 °C 5.0 °F /  -15 °C 1014.4 in /  34347.6 hPa NE 20.9 mph /  33.6 km/h 20.9 mph /  33.6 km/h 92 % 0.0 in /  0 mm
04:17 6.2 °F /  -14.3 °C 5.0 °F /  -15 °C 1014.8 in /  34361.1 hPa NE 7.9 mph /  12.7 km/h 16.1 mph /  25.9 km/h 92 % 0.0 in /  0 mm
05:25 5.7 °F /  -14.6 °C 4.7 °F /  -15.2 °C 1014.4 in /  34347.6 hPa NE 6.4 mph /  10.3 km/h 17.7 mph /  28.5 km/h 93 % 0.0 in /  0 mm
08:07 5.3 °F /  -14.8 °C 4.3 °F /  -15.4 °C 1014.4 in /  34347.6 hPa NNE 7.9 mph /  12.7 km/h 8.0 mph /  12.9 km/h 93 % 0.0 in /  0 mm
10:08 5.4 °F /  -14.8 °C 4.5 °F /  -15.3 °C 1015.1 in /  34371.3 hPa NE 3.2 mph /  5.1 km/h 6.4 mph /  10.3 km/h 94 % 0.0 in /  0 mm
10:14 5.4 °F /  -14.8 °C 4.5 °F /  -15.3 °C 1015.1 in /  34371.3 hPa Calm   1.6 mph /  2.6 km/h 94 % 0.0 in /  0 mm
10:20 5.5 °F /  -14.7 °C 4.6 °F /  -15.2 °C 1015.1 in /  34371.3 hPa NE 4.7 mph /  7.6 km/h 6.4 mph /  10.3 km/h 94 % 0.0 in /  0 mm
10:26 5.6 °F /  -14.7 °C 4.7 °F /  -15.2 °C 1015.1 in /  34371.3 hPa NNE 7.9 mph /  12.7 km/h 9.7 mph /  15.6 km/h 94 % 0.0 in /  0 mm
10:32 5.7 °F /  -14.6 °C 4.8 °F /  -15.1 °C 1015.1 in /  34371.3 hPa NNE 4.7 mph /  7.6 km/h 9.7 mph /  15.6 km/h 94 % 0.0 in /  0 mm
10:40 5.8 °F /  -14.6 °C 4.8 °F /  -15.1 °C 1015.1 in /  34371.3 hPa North 6.4 mph /  10.3 km/h 8.0 mph /  12.9 km/h 93 % 0.0 in /  0 mm
10:46 5.8 °F /  -14.6 °C 4.8 °F /  -15.1 °C 1015.1 in /  34371.3 hPa NE 4.7 mph /  7.6 km/h 6.4 mph /  10.3 km/h 93 % 0.0 in /  0 mm
10:56 5.9 °F /  -14.5 °C 4.9 °F /  -15.1 °C 1015.1 in /  34371.3 hPa ENE 1.4 mph /  2.3 km/h 4.8 mph /  7.7 km/h 93 % 0.0 in /  0 mm
11:00 6.0 °F /  -14.4 °C 5.0 °F /  -15 °C 1015.1 in /  34371.3 hPa Calm   3.2 mph /  5.1 km/h 93 % 0.0 in /  0 mm
11:10 6.4 °F /  -14.2 °C 5.4 °F /  -14.8 °C 1015.5 in /  34384.8 hPa Calm   4.8 mph /  7.7 km/h 93 % 0.0 in /  0 mm
11:14 6.4 °F /  -14.2 °C 5.2 °F /  -14.9 °C 1015.5 in /  34384.8 hPa NE 1.4 mph /  2.3 km/h 6.4 mph /  10.3 km/h 92 % 0.0 in /  0 mm
11:16 6.4 °F /  -14.2 °C 5.2 °F /  -14.9 °C 1015.5 in /  34384.8 hPa NNE 6.4 mph /  10.3 km/h 6.4 mph /  10.3 km/h 92 % 0.0 in /  0 mm
11:24 6.5 °F /  -14.2 °C 5.3 °F /  -14.8 °C 1015.5 in /  34384.8 hPa ENE 1.4 mph /  2.3 km/h 4.8 mph /  7.7 km/h 92 % 0.0 in /  0 mm
11:30 6.6 °F /  -14.1 °C 5.2 °F /  -14.9 °C 1015.5 in /  34384.8 hPa Calm   6.4 mph /  10.3 km/h 91 % 0.0 in /  0 mm
11:36 6.7 °F /  -14.1 °C 5.3 °F /  -14.8 °C 1015.5 in /  34384.8 hPa NE 4.7 mph /  7.6 km/h 6.4 mph /  10.3 km/h 91 % 0.0 in /  0 mm
11:42 6.8 °F /  -14 °C 5.3 °F /  -14.8 °C 1015.1 in /  34371.3 hPa NNE 11.1 mph /  17.9 km/h 11.3 mph /  18.2 km/h 90 % 0.0 in /  0 mm
11:49 6.8 °F /  -14 °C 5.3 °F /  -14.8 °C 1015.1 in /  34371.3 hPa NNE 6.4 mph /  10.3 km/h 12.9 mph /  20.8 km/h 90 % 0.0 in /  0 mm
11:50 7.1 °F /  -13.8 °C 5.6 °F /  -14.7 °C 1014.8 in /  34361.1 hPa ENE 3.2 mph /  5.1 km/h 12.9 mph /  20.8 km/h 90 % 0.0 in /  0 mm
11:56 7.3 °F /  -13.7 °C 5.8 °F /  -14.6 °C 1014.8 in /  34361.1 hPa ENE 6.4 mph /  10.3 km/h 8.0 mph /  12.9 km/h 90 % 0.0 in /  0 mm
12:02 7.6 °F /  -13.6 °C 6.1 °F /  -14.4 °C 1014.8 in /  34361.1 hPa North 4.7 mph /  7.6 km/h 6.4 mph /  10.3 km/h 90 % 0.0 in /  0 mm
12:04 7.7 °F /  -13.5 °C 6.0 °F /  -14.4 °C 1014.4 in /  34347.6 hPa NNE 3.2 mph /  5.1 km/h 11.3 mph /  18.2 km/h 89 % 0.0 in /  0 mm
12:10 7.7 °F /  -13.5 °C 6.0 °F /  -14.4 °C 1014.4 in /  34347.6 hPa ENE 1.4 mph /  2.3 km/h 9.7 mph /  15.6 km/h 89 % 0.0 in /  0 mm
12:16 7.7 °F /  -13.5 °C 6.0 °F /  -14.4 °C 1014.4 in /  34347.6 hPa NNW 4.7 mph /  7.6 km/h 11.3 mph /  18.2 km/h 89 % 0.0 in /  0 mm
12:26 7.7 °F /  -13.5 °C 6.0 °F /  -14.4 °C 1014.1 in /  34337.4 hPa NE 6.4 mph /  10.3 km/h 11.3 mph /  18.2 km/h 89 % 0.0 in /  0 mm
12:30 7.7 °F /  -13.5 °C 5.8 °F /  -14.6 °C 1014.4 in /  34347.6 hPa NE 9.7 mph /  15.6 km/h 11.3 mph /  18.2 km/h 88 % 0.0 in /  0 mm
12:38 7.6 °F /  -13.6 °C 5.7 °F /  -14.6 °C 1014.1 in /  34337.4 hPa North 3.2 mph /  5.1 km/h 11.3 mph /  18.2 km/h 88 % 0.0 in /  0 mm
12:44 7.6 °F /  -13.6 °C 5.7 °F /  -14.6 °C 1014.4 in /  34347.6 hPa ENE 3.2 mph /  5.1 km/h 6.4 mph /  10.3 km/h 88 % 0.0 in /  0 mm
12:46 7.7 °F /  -13.5 °C 5.8 °F /  -14.6 °C 1014.4 in /  34347.6 hPa East 1.4 mph /  2.3 km/h 4.8 mph /  7.7 km/h 88 % 0.0 in /  0 mm
12:50 7.8 °F /  -13.4 °C 5.9 °F /  -14.5 °C 1014.4 in /  34347.6 hPa East 1.4 mph /  2.3 km/h 4.8 mph /  7.7 km/h 88 % 0.0 in /  0 mm
12:56 7.8 °F /  -13.4 °C 5.9 °F /  -14.5 °C 1014.4 in /  34347.6 hPa ENE 4.7 mph /  7.6 km/h 9.7 mph /  15.6 km/h 88 % 0.0 in /  0 mm
13:02 7.7 °F /  -13.5 °C 5.8 °F /  -14.6 °C 1014.4 in /  34347.6 hPa East 4.7 mph /  7.6 km/h 8.0 mph /  12.9 km/h 88 % 0.0 in /  0 mm
13:06 7.7 °F /  -13.5 °C 5.8 °F /  -14.6 °C 1014.4 in /  34347.6 hPa ENE 1.4 mph /  2.3 km/h 3.2 mph /  5.1 km/h 88 % 0.0 in /  0 mm
13:14 7.8 °F /  -13.4 °C 5.9 °F /  -14.5 °C 1014.1 in /  34337.4 hPa East 3.2 mph /  5.1 km/h 9.7 mph /  15.6 km/h 88 % 0.0 in /  0 mm
13:18 7.9 °F /  -13.4 °C 6.2 °F /  -14.3 °C 1014.1 in /  34337.4 hPa NE 6.4 mph /  10.3 km/h 6.4 mph /  10.3 km/h 89 % 0.0 in /  0 mm
13:24 7.9 °F /  -13.4 °C 6.0 °F /  -14.4 °C 1014.1 in /  34337.4 hPa NNW 4.7 mph /  7.6 km/h 8.0 mph /  12.9 km/h 88 % 0.0 in /  0 mm
13:26 7.9 °F /  -13.4 °C 6.0 °F /  -14.4 °C 1014.1 in /  34337.4 hPa NE 7.9 mph /  12.7 km/h 9.7 mph /  15.6 km/h 88 % 0.0 in /  0 mm
13:34 7.8 °F /  -13.4 °C 5.9 °F /  -14.5 °C 1014.1 in /  34337.4 hPa NNE 9.7 mph /  15.6 km/h 12.9 mph /  20.8 km/h 88 % 0.0 in /  0 mm
13:42 7.8 °F /  -13.4 °C 6.1 °F /  -14.4 °C 1013.4 in /  34313.7 hPa North 11.1 mph /  17.9 km/h 11.3 mph /  18.2 km/h 89 % 0.0 in /  0 mm
13:54 8.1 °F /  -13.3 °C 6.2 °F /  -14.3 °C 1013.4 in /  34313.7 hPa NNE 11.1 mph /  17.9 km/h 12.9 mph /  20.8 km/h 88 % 0.0 in /  0 mm
14:08 8.2 °F /  -13.2 °C 6.3 °F /  -14.3 °C 1013.1 in /  34303.6 hPa NNE 9.7 mph /  15.6 km/h 16.1 mph /  25.9 km/h 88 % 0.0 in /  0 mm
14:16 8.2 °F /  -13.2 °C 6.3 °F /  -14.3 °C 1012.8 in /  34293.4 hPa NNE 13.0 mph /  20.9 km/h 17.7 mph /  28.5 km/h 88 % 0.0 in /  0 mm
14:20 8.2 °F /  -13.2 °C 6.3 °F /  -14.3 °C 1012.8 in /  34293.4 hPa NNW 7.9 mph /  12.7 km/h 19.3 mph /  31.1 km/h 88 % 0.0 in /  0 mm
14:31 8.2 °F /  -13.2 °C 6.3 °F /  -14.3 °C 1012.8 in /  34293.4 hPa ENE 6.4 mph /  10.3 km/h 14.5 mph /  23.3 km/h 88 % 0.0 in /  0 mm
14:56 8.4 °F /  -13.1 °C 6.4 °F /  -14.2 °C 1012.4 in /  34279.9 hPa NNW 6.4 mph /  10.3 km/h 22.5 mph /  36.2 km/h 87 % 0.0 in /  0 mm
15:02 8.4 °F /  -13.1 °C 6.4 °F /  -14.2 °C 1012.1 in /  34269.7 hPa NE 14.3 mph /  23 km/h 20.9 mph /  33.6 km/h 87 % 0.0 in /  0 mm
15:10 8.5 °F /  -13.1 °C 6.3 °F /  -14.3 °C 1012.4 in /  34279.9 hPa North 9.7 mph /  15.6 km/h 24.1 mph /  38.8 km/h 86 % 0.0 in /  0 mm
15:26 8.5 °F /  -13.1 °C 6.3 °F /  -14.3 °C 1012.4 in /  34279.9 hPa NNE 16.3 mph /  26.2 km/h 17.7 mph /  28.5 km/h 86 % 0.0 in /  0 mm
16:37 8.6 °F /  -13 °C 6.6 °F /  -14.1 °C 1013.4 in /  34313.7 hPa Calm   3.2 mph /  5.1 km/h 87 % 0.0 in /  0 mm
16:38 8.5 °F /  -13.1 °C 6.5 °F /  -14.2 °C 1013.4 in /  34313.7 hPa ESE 1.4 mph /  2.3 km/h 3.2 mph /  5.1 km/h 87 % 0.0 in /  0 mm
16:59 8.3 °F /  -13.2 °C 6.3 °F /  -14.3 °C 1012.8 in /  34293.4 hPa NNE 4.7 mph /  7.6 km/h 4.8 mph /  7.7 km/h 87 % 0.0 in /  0 mm
17:14 7.6 °F /  -13.6 °C 5.9 °F /  -14.5 °C 1012.8 in /  34293.4 hPa NNE 3.2 mph /  5.1 km/h 8.0 mph /  12.9 km/h 89 % 0.0 in /  0 mm
17:25 7.6 °F /  -13.6 °C 6.1 °F /  -14.4 °C 1012.8 in /  34293.4 hPa North 4.7 mph /  7.6 km/h 9.7 mph /  15.6 km/h 90 % 0.0 in /  0 mm
17:31 7.3 °F /  -13.7 °C 5.8 °F /  -14.6 °C 1012.4 in /  34279.9 hPa North 4.7 mph /  7.6 km/h 11.3 mph /  18.2 km/h 90 % 0.0 in /  0 mm
17:37 7.3 °F /  -13.7 °C 5.8 °F /  -14.6 °C 1012.4 in /  34279.9 hPa North 3.2 mph /  5.1 km/h 8.0 mph /  12.9 km/h 90 % 0.0 in /  0 mm
17:43 7.3 °F /  -13.7 °C 5.8 °F /  -14.6 °C 1012.8 in /  34293.4 hPa North 7.9 mph /  12.7 km/h 12.9 mph /  20.8 km/h 90 % 0.0 in /  0 mm
17:45 7.3 °F /  -13.7 °C 5.8 °F /  -14.6 °C 1012.4 in /  34279.9 hPa NNE 6.4 mph /  10.3 km/h 8.0 mph /  12.9 km/h 90 % 0.0 in /  0 mm
17:49 7.3 °F /  -13.7 °C 5.8 °F /  -14.6 °C 1012.4 in /  34279.9 hPa NE 7.9 mph /  12.7 km/h 11.3 mph /  18.2 km/h 90 % 0.0 in /  0 mm
17:55 7.2 °F /  -13.8 °C 5.8 °F /  -14.6 °C 1012.4 in /  34279.9 hPa NNE 13.0 mph /  20.9 km/h 13.0 mph /  20.9 km/h 91 % 0.0 in /  0 mm
18:01 7.2 °F /  -13.8 °C 5.8 °F /  -14.6 °C 1012.4 in /  34279.9 hPa NE 6.4 mph /  10.3 km/h 9.7 mph /  15.6 km/h 91 % 0.0 in /  0 mm
18:05 7.3 °F /  -13.7 °C 5.9 °F /  -14.5 °C 1012.4 in /  34279.9 hPa North 6.4 mph /  10.3 km/h 14.5 mph /  23.3 km/h 91 % 0.0 in /  0 mm
18:11 7.3 °F /  -13.7 °C 5.9 °F /  -14.5 °C 1012.8 in /  34293.4 hPa NE 6.4 mph /  10.3 km/h 6.4 mph /  10.3 km/h 91 % 0.0 in /  0 mm
18:17 7.2 °F /  -13.8 °C 5.8 °F /  -14.6 °C 1012.8 in /  34293.4 hPa NNW 3.2 mph /  5.1 km/h 4.8 mph /  7.7 km/h 91 % 0.0 in /  0 mm
18:25 7.2 °F /  -13.8 °C 5.8 °F /  -14.6 °C 1012.8 in /  34293.4 hPa NNW 3.2 mph /  5.1 km/h 8.0 mph /  12.9 km/h 91 % 0.0 in /  0 mm
18:29 7.2 °F /  -13.8 °C 5.8 °F /  -14.6 °C 1012.8 in /  34293.4 hPa NNE 4.7 mph /  7.6 km/h 4.8 mph /  7.7 km/h 91 % 0.0 in /  0 mm
18:37 7.1 °F /  -13.8 °C 5.7 °F /  -14.6 °C 1012.8 in /  34293.4 hPa NNW 3.2 mph /  5.1 km/h 4.8 mph /  7.7 km/h 91 % 0.0 in /  0 mm
18:41 7.1 °F /  -13.8 °C 5.7 °F /  -14.6 °C 1012.8 in /  34293.4 hPa NNE 4.7 mph /  7.6 km/h 9.7 mph /  15.6 km/h 91 % 0.0 in /  0 mm
18:47 7.1 °F /  -13.8 °C 5.7 °F /  -14.6 °C 1012.8 in /  34293.4 hPa NNE 6.4 mph /  10.3 km/h 11.3 mph /  18.2 km/h 91 % 0.0 in /  0 mm
18:53 7.1 °F /  -13.8 °C 5.7 °F /  -14.6 °C 1012.8 in /  34293.4 hPa NE 4.7 mph /  7.6 km/h 12.9 mph /  20.8 km/h 91 % 0.0 in /  0 mm
18:59 7.1 °F /  -13.8 °C 5.6 °F /  -14.7 °C 1012.8 in /  34293.4 hPa NNE 1.4 mph /  2.3 km/h 11.3 mph /  18.2 km/h 90 % 0.0 in /  0 mm
19:07 7.1 °F /  -13.8 °C 5.6 °F /  -14.7 °C 1012.8 in /  34293.4 hPa NNW 4.7 mph /  7.6 km/h 9.7 mph /  15.6 km/h 90 % 0.0 in /  0 mm
19:15 6.9 °F /  -13.9 °C 5.5 °F /  -14.7 °C 1012.8 in /  34293.4 hPa NE 1.4 mph /  2.3 km/h 8.0 mph /  12.9 km/h 91 % 0.0 in /  0 mm
19:21 6.9 °F /  -13.9 °C 5.5 °F /  -14.7 °C 1012.8 in /  34293.4 hPa North 4.7 mph /  7.6 km/h 9.7 mph /  15.6 km/h 91 % 0.0 in /  0 mm
19:23 6.8 °F /  -14 °C 5.4 °F /  -14.8 °C 1012.8 in /  34293.4 hPa NE 6.4 mph /  10.3 km/h 9.7 mph /  15.6 km/h 91 % 0.0 in /  0 mm
19:29 6.8 °F /  -14 °C 5.4 °F /  -14.8 °C 1012.4 in /  34279.9 hPa NE 1.4 mph /  2.3 km/h 6.4 mph /  10.3 km/h 91 % 0.0 in /  0 mm
19:35 6.8 °F /  -14 °C 5.4 °F /  -14.8 °C 1012.4 in /  34279.9 hPa NNW 1.4 mph /  2.3 km/h 6.4 mph /  10.3 km/h 91 % 0.0 in /  0 mm
19:41 6.8 °F /  -14 °C 5.3 °F /  -14.8 °C 1012.4 in /  34279.9 hPa NNE 3.2 mph /  5.1 km/h 4.8 mph /  7.7 km/h 90 % 0.0 in /  0 mm
19:47 6.8 °F /  -14 °C 5.4 °F /  -14.8 °C 1012.4 in /  34279.9 hPa Calm   6.4 mph /  10.3 km/h 91 % 0.0 in /  0 mm
20:03 6.7 °F /  -14.1 °C 5.3 °F /  -14.8 °C 1012.4 in /  34279.9 hPa North 4.7 mph /  7.6 km/h 12.9 mph /  20.8 km/h 91 % 0.0 in /  0 mm
20:09 6.7 °F /  -14.1 °C 5.3 °F /  -14.8 °C 1012.4 in /  34279.9 hPa NE 7.9 mph /  12.7 km/h 9.7 mph /  15.6 km/h 91 % 0.0 in /  0 mm
20:15 6.7 °F /  -14.1 °C 5.2 °F /  -14.9 °C 1012.4 in /  34279.9 hPa NE 4.7 mph /  7.6 km/h 8.0 mph /  12.9 km/h 90 % 0.0 in /  0 mm
20:17 6.7 °F /  -14.1 °C 5.2 °F /  -14.9 °C 1012.4 in /  34279.9 hPa NNE 1.4 mph /  2.3 km/h 4.8 mph /  7.7 km/h 90 % 0.0 in /  0 mm
20:25 6.7 °F /  -14.1 °C 5.3 °F /  -14.8 °C 1012.4 in /  34279.9 hPa NNE 1.4 mph /  2.3 km/h 1.6 mph /  2.6 km/h 91 % 0.0 in /  0 mm
20:31 6.7 °F /  -14.1 °C 5.2 °F /  -14.9 °C 1012.4 in /  34279.9 hPa Calm   1.6 mph /  2.6 km/h 90 % 0.0 in /  0 mm
20:41 6.6 °F /  -14.1 °C 5.1 °F /  -14.9 °C 1012.4 in /  34279.9 hPa Calm   1.6 mph /  2.6 km/h 90 % 0.0 in /  0 mm
20:47 6.6 °F /  -14.1 °C 5.2 °F /  -14.9 °C 1012.4 in /  34279.9 hPa Calm   1.6 mph /  2.6 km/h 91 % 0.0 in /  0 mm
20:53 6.4 °F /  -14.2 °C 5.0 °F /  -15 °C 1012.4 in /  34279.9 hPa North 4.7 mph /  7.6 km/h 4.8 mph /  7.7 km/h 91 % 0.0 in /  0 mm
21:01 6.4 °F /  -14.2 °C 5.0 °F /  -15 °C 1012.4 in /  34279.9 hPa North 1.4 mph /  2.3 km/h 6.4 mph /  10.3 km/h 91 % 0.0 in /  0 mm
22:28 5.9 °F /  -14.5 °C 4.7 °F /  -15.2 °C 1011.7 in /  34256.2 hPa ENE 3.2 mph /  5.1 km/h 8.0 mph /  12.9 km/h 92 % 0.0 in /  0 mm
23:22 5.6 °F /  -14.7 °C 4.6 °F /  -15.2 °C 1011.4 in /  34246 hPa NNE 1.4 mph /  2.3 km/h 3.2 mph /  5.1 km/h 93 % 0.0 in /  0 mm
23:26 5.6 °F /  -14.7 °C 4.6 °F /  -15.2 °C 1011.4 in /  34246 hPa Calm   1.6 mph /  2.6 km/h 93 % 0.0 in /  0 mm
23:34 5.4 °F /  -14.8 °C 4.4 °F /  -15.3 °C 1011.4 in /  34246 hPa Calm   1.6 mph /  2.6 km/h 93 % 0.0 in /  0 mm
23:52 5.0 °F /  -15 °C 4.0 °F /  -15.6 °C 1011.7 in /  34256.2 hPa Calm     93 % 0.0 in /  0 mm
Meteo18
Compliments of Weather Underground - 4 mb

Script developed by  Jim McMurry - jmcmurry@mwt.net Adapted for the template by  Wim van der Kuil - Leuven-Template.eu

You find our weather info also at:

European Weather Network

Weather Underground

Equipment we use:

Weather-station
Davis Vue

Weather-program
Meteobridge

Weather-server
Raspberry PI 2 B+

Provider
1 and 1

Davis Vue

Meteobridge

Raspberry PI 2 B+

1 and 1